Terminal Aerodrome Forecast
Issued by NWS Goodland, KS

Home | Current Version | Previous Version | Text Only | Print | Product List | Glossary On
Versions: 1 2 3 4 5 6 7 8 9 10 11 12 13 14 15 16 17 18 19 20 21 22 23 24 25 26 27
000
FTUS43 KGLD 190542 AAA
TAFGLD
TAF AMD
KGLD 190542Z 1906/2006 01015G25KT P6SM OVC008
      TEMPO 1906/1909 6SM BR OVC004
     FM190900 02013G20KT P6SM BKN010
     FM191200 03012KT P6SM BKN020
     FM191700 06010KT P6SM BKN035
     FM192000 10012KT P6SM SCT035
     FM192300 09015G22KT P6SM SCT035
     FM200300 07012KT P6SM BKN025
     FM200400 06012KT P6SM VCSH BKN010=

USA.gov is the U.S. government's official web portal to all federal, state and local government web resources and services.